When you browse on this site, cookies collect data to enhance your experience and personalize the content and advertising you see.
Visit our Privacy Policy to learn more. By continuing to use the site, you agree to this use of cookies and data.
  • In Schweiz
  • Länderverzeichnis
  • Für 7 Tage
  • Wassertemperatur
  • Wetterkarte
  • Widgets
  • user-avatar
    Anmelden

    Stündliche Wetter Ryasino

    Heute, 19 August, Montag

    Zeit Temperatur Niederschläge Wind Luftdruck Luftfeuchtigkeit
    00:00 +14°C° 0 mm 2 m/S 738 mmHg 95%
    01:00 +14°C° 0 mm 2 m/S 738 mmHg 95%
    02:00 +13°C° 0 mm 1 m/S 738 mmHg 94%
    03:00 +13°C° 0 mm 1 m/S 739 mmHg 94%
    04:00 +13°C° 0 mm 1 m/S 739 mmHg 93%
    05:00 +12°C° 0 mm 1 m/S 739 mmHg 93%
    06:00 +14°C° 0 mm 2 m/S 739 mmHg 90%
    07:00 +16°C° 0 mm 2 m/S 740 mmHg 86%
    08:00 +18°C° 0 mm 2 m/S 740 mmHg 81%
    09:00 +19°C° 0 mm 2 m/S 740 mmHg 76%
    10:00 +21°C° 0 mm 3 m/S 740 mmHg 72%
    11:00 +22°C° 0 mm 3 m/S 740 mmHg 67%
    12:00 +24°C° 0 mm 3 m/S 740 mmHg 66%
    13:00 +25°C° 0 mm 4 m/S 741 mmHg 65%
    14:00 +25°C° 0 mm 4 m/S 741 mmHg 64%
    15:00 +25°C° 0 mm 3 m/S 741 mmHg 68%
    16:00 +25°C° 0 mm 3 m/S 741 mmHg 72%
    17:00 +25°C° 0 mm 3 m/S 741 mmHg 76%
    18:00 +22°C° 0 mm 3 m/S 741 mmHg 80%
    19:00 +21°C° 0 mm 3 m/S 741 mmHg 85%
    20:00 +19°C° 0 mm 3 m/S 741 mmHg 89%
    21:00 +19°C° 0 mm 3 m/S 741 mmHg 88%
    22:00 +19°C° 0 mm 3 m/S 741 mmHg 88%
    23:00 +18°C° 0 mm 3 m/S 741 mmHg 87%

    Morgen, 20 August, Dienstag

    Zeit Temperatur Niederschläge Wind Luftdruck Luftfeuchtigkeit
    00:00 +18°C° 0.1 mm 3 m/S 741 mmHg 88%
    01:00 +17°C° 0.1 mm 3 m/S 742 mmHg 90%
    02:00 +17°C° 0.1 mm 2 m/S 742 mmHg 92%
    03:00 +17°C° 0.5 mm 2 m/S 742 mmHg 93%
    04:00 +16°C° 0.5 mm 2 m/S 742 mmHg 94%
    05:00 +16°C° 0.5 mm 2 m/S 742 mmHg 95%
    06:00 +17°C° 0.3 mm 2 m/S 742 mmHg 94%
    07:00 +18°C° 0.3 mm 2 m/S 743 mmHg 92%
    08:00 +20°C° 0.3 mm 2 m/S 743 mmHg 90%
    09:00 +21°C° 0.2 mm 2 m/S 743 mmHg 87%
    10:00 +23°C° 0.2 mm 2 m/S 743 mmHg 84%
    11:00 +25°C° 0.2 mm 3 m/S 743 mmHg 81%
    12:00 +25°C° 0.9 mm 2 m/S 743 mmHg 82%
    13:00 +25°C° 0.9 mm 2 m/S 743 mmHg 83%
    14:00 +25°C° 0.9 mm 2 m/S 743 mmHg 83%
    15:00 +25°C° 0.4 mm 2 m/S 743 mmHg 85%
    16:00 +24°C° 0.4 mm 2 m/S 743 mmHg 87%
    17:00 +24°C° 0.4 mm 1 m/S 744 mmHg 89%
    18:00 +23°C° 0.1 mm 1 m/S 744 mmHg 89%
    19:00 +22°C° 0.1 mm 1 m/S 744 mmHg 90%
    20:00 +21°C° 0.1 mm 1 m/S 744 mmHg 91%
    21:00 +21°C° 0 mm 1 m/S 744 mmHg 91%
    22:00 +20°C° 0 mm 1 m/S 744 mmHg 92%
    23:00 +20°C° 0 mm 1 m/S 744 mmHg 93%

    übermorgen, 21 August, Mittwoch

    Zeit Temperatur Niederschläge Wind Luftdruck Luftfeuchtigkeit
    00:00 +20°C° 0.1 mm 1 m/S 744 mmHg 93%
    01:00 +19°C° 0.1 mm 1 m/S 744 mmHg 94%
    02:00 +19°C° 0.1 mm 1 m/S 744 mmHg 94%
    03:00 +19°C° 0 mm 1 m/S 744 mmHg 94%
    04:00 +18°C° 0 mm 2 m/S 744 mmHg 94%
    05:00 +18°C° 0 mm 2 m/S 744 mmHg 94%
    06:00 +19°C° 0 mm 2 m/S 744 mmHg 92%
    07:00 +20°C° 0 mm 2 m/S 744 mmHg 89%
    08:00 +21°C° 0 mm 2 m/S 744 mmHg 86%
    09:00 +22°C° 0 mm 3 m/S 744 mmHg 82%
    10:00 +24°C° 0 mm 3 m/S 744 mmHg 77%
    11:00 +26°C° 0 mm 3 m/S 744 mmHg 72%
    12:00 +26°C° 0 mm 3 m/S 744 mmHg 70%
    13:00 +27°C° 0 mm 4 m/S 744 mmHg 68%
    14:00 +28°C° 0 mm 4 m/S 744 mmHg 66%
    15:00 +27°C° 0 mm 3 m/S 743 mmHg 69%
    16:00 +27°C° 0 mm 3 m/S 743 mmHg 73%
    17:00 +27°C° 0 mm 2 m/S 743 mmHg 76%
    18:00 +25°C° 0 mm 2 m/S 743 mmHg 80%
    19:00 +23°C° 0 mm 2 m/S 743 mmHg 83%
    20:00 +21°C° 0 mm 2 m/S 743 mmHg 87%
    21:00 +20°C° 0 mm 2 m/S 743 mmHg 88%
    22:00 +20°C° 0 mm 2 m/S 742 mmHg 88%
    23:00 +19°C° 0 mm 2 m/S 742 mmHg 89%

    22 August, Donnerstag

    Zeit Temperatur Niederschläge Wind Luftdruck Luftfeuchtigkeit
    00:00 +19°C° 0.1 mm 2 m/S 742 mmHg 89%
    01:00 +19°C° 0.1 mm 2 m/S 742 mmHg 89%
    02:00 +18°C° 0.1 mm 2 m/S 742 mmHg 89%
    03:00 +18°C° 0.7 mm 2 m/S 742 mmHg 91%
    04:00 +18°C° 0.7 mm 2 m/S 742 mmHg 92%
    05:00 +18°C° 0.7 mm 1 m/S 742 mmHg 93%
    06:00 +19°C° 0.5 mm 1 m/S 742 mmHg 93%
    07:00 +19°C° 0.5 mm 1 m/S 742 mmHg 93%
    08:00 +20°C° 0.5 mm 1 m/S 743 mmHg 93%
    09:00 +20°C° 0.5 mm 1 m/S 743 mmHg 92%
    10:00 +19°C° 0.5 mm 2 m/S 743 mmHg 92%
    11:00 +20°C° 0.5 mm 2 m/S 743 mmHg 91%
    12:00 +19°C° 0.2 mm 3 m/S 743 mmHg 92%
    13:00 +18°C° 0.2 mm 4 m/S 743 mmHg 93%
    14:00 +17°C° 0.2 mm 4 m/S 743 mmHg 95%
    15:00 +17°C° 0 mm 4 m/S 743 mmHg 94%
    16:00 +15°C° 0 mm 4 m/S 744 mmHg 93%
    17:00 +15°C° 0 mm 4 m/S 744 mmHg 93%
    18:00 +15°C° 0 mm 4 m/S 744 mmHg 93%
    19:00 +15°C° 0 mm 4 m/S 744 mmHg 93%
    20:00 +14°C° 0 mm 4 m/S 744 mmHg 93%
    21:00 +14°C° 0 mm 3 m/S 744 mmHg 94%
    22:00 +13°C° 0 mm 3 m/S 745 mmHg 95%
    23:00 +13°C° 0 mm 3 m/S 745 mmHg 96%

    23 August, Freitag

    Zeit Temperatur Niederschläge Wind Luftdruck Luftfeuchtigkeit
    00:00 +12°C° 0 mm 3 m/S 745 mmHg 96%
    01:00 +12°C° 0 mm 3 m/S 745 mmHg 96%
    02:00 +12°C° 0 mm 3 m/S 745 mmHg 96%
    03:00 +12°C° 0 mm 3 m/S 745 mmHg 97%
    04:00 +12°C° 0 mm 3 m/S 745 mmHg 97%
    05:00 +12°C° 0 mm 3 m/S 745 mmHg 97%
    06:00 +13°C° 0 mm 3 m/S 745 mmHg 93%
    07:00 +14°C° 0 mm 3 m/S 745 mmHg 89%
    08:00 +17°C° 0 mm 3 m/S 746 mmHg 85%
    09:00 +18°C° 0 mm 3 m/S 746 mmHg 78%
    10:00 +19°C° 0 mm 3 m/S 746 mmHg 72%
    11:00 +21°C° 0 mm 3 m/S 746 mmHg 66%
    12:00 +21°C° 0 mm 3 m/S 746 mmHg 64%
    13:00 +21°C° 0 mm 3 m/S 746 mmHg 62%
    14:00 +22°C° 0 mm 3 m/S 746 mmHg 60%
    15:00 +21°C° 0 mm 3 m/S 746 mmHg 63%
    16:00 +21°C° 0 mm 3 m/S 746 mmHg 67%
    17:00 +21°C° 0 mm 2 m/S 746 mmHg 70%
    18:00 +19°C° 0 mm 2 m/S 746 mmHg 73%
    19:00 +17°C° 0 mm 2 m/S 746 mmHg 77%
    20:00 +15°C° 0 mm 2 m/S 746 mmHg 81%
    21:00 +14°C° 0 mm 2 m/S 747 mmHg 83%
    22:00 +14°C° 0 mm 2 m/S 747 mmHg 84%
    23:00 +13°C° 0 mm 2 m/S 747 mmHg 86%

    24 August, Samstag

    Zeit Temperatur Niederschläge Wind Luftdruck Luftfeuchtigkeit
    00:00 +13°C° 0 mm 1 m/S 747 mmHg 87%
    01:00 +12°C° 0 mm 1 m/S 747 mmHg 88%
    02:00 +12°C° 0 mm 1 m/S 747 mmHg 89%
    03:00 +12°C° 0 mm 1 m/S 747 mmHg 90%
    04:00 +11°C° 0 mm 1 m/S 747 mmHg 90%
    05:00 +11°C° 0 mm 1 m/S 747 mmHg 91%
    06:00 +13°C° 0 mm 1 m/S 748 mmHg 85%
    07:00 +15°C° 0 mm 1 m/S 748 mmHg 80%
    08:00 +18°C° 0 mm 1 m/S 748 mmHg 74%
    09:00 +19°C° 0 mm 1 m/S 748 mmHg 70%
    10:00 +20°C° 0 mm 1 m/S 748 mmHg 65%
    11:00 +22°C° 0 mm 1 m/S 748 mmHg 61%
    12:00 +22°C° 0 mm 1 m/S 748 mmHg 59%
    13:00 +23°C° 0 mm 1 m/S 748 mmHg 57%
    14:00 +23°C° 0 mm 1 m/S 748 mmHg 55%
    15:00 +23°C° 0 mm 1 m/S 748 mmHg 60%
    16:00 +23°C° 0 mm 1 m/S 748 mmHg 64%
    17:00 +22°C° 0 mm 1 m/S 747 mmHg 68%
    18:00 +20°C° 0 mm 1 m/S 747 mmHg 74%
    19:00 +18°C° 0 mm 1 m/S 747 mmHg 79%
    20:00 +14°C° 0 mm 0 m/S 747 mmHg 85%
    21:00 +14°C° 0 mm 0 m/S 747 mmHg 86%
    22:00 +13°C° 0 mm 0 m/S 747 mmHg 86%
    23:00 +13°C° 0 mm 0 m/S 747 mmHg 87%
    Mehr zeigen